Tracking 29892 objects as of 21-Nov-2024
HD Live streaming from Space Station
objects crossing your sky now

STARLINK-4278

Track STARLINK-4278 now!
10-day predictions
STARLINK-4278 is classified as:


NORAD ID: 53182
Int'l Code: 2022-083BC
Perigee: 545.7 km
Apogee: 547.8 km
Inclination: 53.2 °
Period: 95.4 minutes
Semi major axis: 6917 km
RCS: Unknown
Launch date: July 17, 2022
Source: United States (US)
Launch site: AIR FORCE EASTERN TEST RANGE (AFETR)
Your satellite tracking list
Your tracking list is empty




NASA's NSSDC Master Catalog

Two Line Element Set (TLE):
1 53182U 22083BC  24325.83872674 -.00005364  00000-0 -31891-3 0  9990
2 53182  53.2170 106.3084 0001521 103.4648 256.6514 15.08867938130161
Source of the keplerian elements: AFSPC